Location: Burgerwiesen
(48.6500°N, 15.6167°E)
Time: 16:11:35
(UTC+00:00)

Resurs 1-3 - Pass Details

Date: 09 April 2020
Orbit: 630 x 632 km, 97.9° (Epoch: 28 May)

Event Time Altitude Azimuth Distance (km) Brightness Sun altitude
Exits shadow 18:41:32 - 148° (SSE) 2,075 5.7 -10.3°
Reaches altitude 10° 18:41:42 10° 147° (SSE) 2,010 5.7 -10.4°
Maximum altitude 18:45:58 53° 71° (ENE) 779 3.8 -11.0°
Drops below altitude 10° 18:50:15 10° 355° (N) 2,026 6.6 -11.6°
Sets 18:52:30 0° 351° (N) 2,939 7.6 -12.0°
